Location: Oriwa
(40.7500°S, 175.3333°E)
Time: 14:12:10
(UTC+00:00)

COSMOS 2455 - Pass Details

Date: 03 February 2023
Orbit: 898 x 911 km, 67.1° (Epoch: 31 March)

Event Time Altitude Azimuth Distance (km) Brightness Sun altitude
Exits shadow 15:58:31 - 2° (N) 3,043 5.2 -15.5°
Reaches altitude 10° 15:59:50 10° 7° (N) 2,591 4.9 -15.3°
Maximum altitude 16:05:14 36° 71° (ENE) 1,422 4.2 -14.5°
Drops below altitude 10° 16:10:40 10° 134° (SE) 2,611 6.7 -13.7°
Sets 16:13:22 0° 142° (SE) 3,557 7.5 -13.3°
